Wind_Speed
14 17 19 21 23 25 27 28 30 32 33 35 37 38 38 39 39 38 37 36 35 34 34 33 32 31 31 31 30 29 28 28 26 25 23 21 19 17 16 16 17 19 22
11 13 15 16 18 20 23 25 27 29 32 34 36 39 41 42 43 43 43 42 41 40 39 38 37 36 35 35 34 33 32 31 30 29 27 25 23 21 19 18 17 18 20
10 12 13 15 17 18 20 22 24 26 28 30 33 36 38 41 43 45 46 47 47 46 45 44 42 41 40 39 38 37 36 35 34 33 31 29 27 25 23 21 19 19 19
11 13 15 16 18 20 21 23 25 26 28 30 31 33 35 37 40 42 45 47 49 50 50 50 48 46 45 44 42 41 40 40 38 37 35 34 31 29 27 25 23 21 21
13 15 16 18 20 22 24 26 27 29 31 32 33 35 36 38 39 40 42 44 47 49 51 52 53 52 51 49 47 46 45 44 43 41 40 38 36 34 31 29 26 25 23
16 18 20 23 25 27 29 31 33 35 36 37 38 40 40 41 42 43 44 45 46 47 49 51 53 55 55 54 53 51 50 48 47 46 45 43 41 38 36 33 31 29 27
20 23 26 28 31 33 35 37 39 41 43 44 45 46 47 47 48 48 48 49 49 49 50 51 52 54 56 57 56 55 54 53 51 49 48 47 45 43 41 38 35 32 31
26 29 32 34 37 40 42 45 47 49 50 52 53 54 55 55 56 55 55 55 55 54 54 53 53 54 55 57 58 58 58 57 55 53 52 51 49 48 46 43 40 37 34
31 34 37 40 44 47 49 52 54 56 58 60 61 62 63 64 64 64 63 62 61 60 60 59 57 57 57 58 59 59 59 59 58 56 55 54 53 52 50 48 45 41 39
37 40 43 46 50 53 56 59 61 64 66 68 69 70 71 72 72 72 71 71 69 68 66 64 63 62 61 60 60 61 61 61 60 59 57 56 55 55 54 53 50 46 43
43 46 49 52 55 58 61 64 67 69 72 74 76 77 78 79 79 79 79 78 76 75 73 71 69 67 66 64 63 62 63 63 63 61 60 58 58 57 57 56 55 52 48
47 50 53 56 59 62 65 68 70 73 76 78 80 81 83 84 85 85 84 84 83 81 78 76 74 72 71 69 68 67 65 64 65 64 62 61 59 59 58 59 58 56 53
50 54 57 60 63 66 69 71 74 77 79 82 84 85 86 88 89 89 89 89 87 85 83 81 79 77 75 74 73 71 69 67 66 66 66 64 62 61 60 61 61 59 57
54 57 60 63 66 70 73 76 79 81 84 86 88 90 92 93 94 94 94 93 92 90 88 85 83 81 79 78 77 76 74 72 70 68 68 68 66 63 62 62 62 62 60
57 60 63 67 71 74 77 80 82 85 88 91 93 94 95 96 96 95 94 93 92 91 91 89 88 86 84 82 80 80 79 77 74 72 70 70 69 67 65 63 63 63 62
59 63 67 71 74 77 80 84 87 90 92 94 94 92 90 89 87 86 85 84 83 83 83 84 85 85 86 86 84 83 82 81 79 76 73 72 72 71 69 67 66 65 64
63 67 71 74 77 81 85 88 91 93 93 91 88 84 81 78 75 74 73 72 72 71 72 74 77 79 81 84 85 86 85 84 82 80 78 75 74 73 73 71 69 68 66
67 71 75 78 81 85 89 91 93 92 88 84 79 75 72 70 68 66 65 65 64 64 65 66 68 71 75 78 82 85 87 87 86 85 83 80 77 76 75 74 73 71 69
71 74 78 81 85 88 90 91 90 85 81 77 74 72 70 67 65 64 62 61 60 60 61 62 64 66 69 73 78 82 86 89 90 89 87 85 81 79 77 77 76 75 73
75 78 81 85 87 89 89 87 82 77 75 73 72 71 68 65 63 61 59 57 57 58 59 60 62 64 66 69 73 78 83 88 91 92 91 89 86 83 80 79 78 78 76
78 80 84 86 88 88 86 81 76 73 72 71 70 68 65 62 59 57 55 53 53 54 56 58 60 62 64 66 68 72 77 84 89 93 94 93 90 87 84 81 80 79 77
79 82 85 87 87 86 82 77 75 73 72 70 67 63 60 57 53 51 50 49 49 50 51 54 58 60 63 65 66 67 71 76 84 90 94 95 94 91 88 84 82 80 78
80 83 85 86 85 82 78 75 74 72 69 65 60 56 53 50 48 46 45 44 44 45 47 49 53 57 60 63 65 66 67 70 76 83 91 95 96 95 92 88 84 81 79
80 83 85 85 82 78 76 75 74 71 66 61 56 52 49 48 46 45 43 42 42 42 42 44 48 52 57 61 64 66 66 66 69 74 84 92 96 97 96 93 88 85 82
81 83 83 81 78 76 76 75 73 69 63 57 52 49 47 47 47 45 44 42 41 41 41 41 43 47 52 57 62 66 67 66 66 68 74 86 93 97 98 96 93 89 86
81 82 81 78 76 75 75 73 71 65 59 54 50 48 48 47 48 47 46 45 44 42 41 41 41 43 47 53 58 64 67 68 67 65 66 74 87 94 98 99 96 93 90
Wind_Direction
289 288 286 284 282 281 280 279 277 274 272 270 269 267 266 264 262 259 256 255 253 252 252 251 251 250 250 249 248 248 247 247 246 243 241 238 234 228 223 222 224 225 225
303 299 296 292 290 287 285 283 281 279 276 274 272 270 268 267 266 264 262 259 256 254 252 252 252 251 251 250 248 247 246 245 245 243 240 237 235 231 226 223 223 224 224
317 311 306 303 300 297 295 293 291 288 285 282 279 276 274 272 269 267 265 263 260 257 254 252 252 252 252 251 249 248 247 245 244 243 240 238 235 233 229 225 222 223 224
319 316 313 311 309 307 305 303 301 299 296 293 289 286 282 279 276 273 270 267 263 260 258 255 252 251 251 250 250 249 247 245 244 242 241 238 236 234 232 229 225 223 223
326 323 321 319 317 315 313 310 308 305 302 300 297 294 290 287 283 279 276 272 268 264 261 257 254 252 250 249 249 248 247 246 244 242 240 239 237 235 233 231 228 225 224
329 324 321 319 316 314 312 309 307 304 302 299 297 295 292 290 287 284 281 277 273 269 265 261 257 254 251 249 248 247 247 245 244 242 240 238 237 236 234 233 230 228 226
324 320 317 314 312 309 307 304 302 300 298 296 295 293 291 289 286 284 282 279 276 273 269 265 261 257 253 250 247 246 245 244 243 242 240 238 236 236 235 234 232 229 227
319 316 313 310 308 306 304 302 300 299 297 295 294 292 290 288 286 284 281 278 276 274 271 268 265 261 257 253 249 246 244 243 242 242 240 238 236 235 235 235 233 230 229
314 312 310 308 307 305 304 302 301 299 297 296 294 292 290 288 286 284 281 278 275 273 270 268 266 263 260 256 252 248 245 242 241 241 240 239 237 235 235 235 234 232 230
312 311 309 308 307 306 305 304 302 300 299 297 295 293 291 289 286 284 281 278 276 273 270 267 264 262 260 258 255 251 247 244 241 239 239 238 237 235 234 234 234 233 231
312 311 310 309 308 307 305 303 302 300 298 296 294 292 290 289 286 284 281 278 275 272 269 266 263 260 258 256 255 252 250 246 242 239 237 237 236 235 234 234 234 233 231
312 311 310 309 307 306 304 303 301 299 297 295 293 291 289 287 285 283 281 278 275 272 269 265 262 259 256 254 252 251 250 247 244 240 237 236 235 234 233 233 233 233 232
312 311 310 308 307 306 304 303 301 299 297 295 293 291 288 286 284 282 279 277 274 271 268 265 261 258 254 252 250 249 248 246 245 242 238 236 234 233 232 232 232 232 231
312 311 310 310 309 307 306 304 302 300 298 296 294 291 289 286 283 280 278 275 273 270 266 263 260 257 253 250 247 245 245 244 242 241 239 236 234 232 231 231 232 232 231
312 312 312 312 310 309 308 306 305 303 301 298 296 293 290 287 285 282 280 277 274 270 266 263 259 255 252 249 245 243 241 241 240 239 238 236 234 232 230 231 231 231 231
315 315 315 313 312 311 310 309 308 306 303 301 299 296 294 291 288 284 281 278 274 270 267 263 259 255 251 247 244 241 239 238 237 237 236 235 234 231 230 229 230 230 230
317 317 316 315 315 314 313 312 310 308 306 304 302 300 298 294 290 286 282 277 273 269 264 260 256 253 249 246 243 240 237 236 235 234 234 233 232 231 229 228 229 229 229
320 320 319 319 318 318 316 314 312 311 309 308 306 303 301 297 293 288 284 279 273 268 262 258 254 250 246 243 240 238 236 234 232 232 231 230 230 229 228 228 228 228 229
323 323 323 322 321 320 318 316 315 314 313 311 309 306 303 300 296 291 286 280 274 268 263 257 252 248 245 241 237 235 233 232 230 229 229 228 228 227 227 227 227 228 228
326 326 325 324 322 321 319 318 317 316 314 312 310 308 305 301 298 293 288 282 276 269 263 257 252 247 244 240 237 233 231 229 228 228 227 227 226 225 225 225 226 227 228
328 327 326 324 323 321 320 319 318 316 315 313 311 309 307 303 300 295 291 285 279 272 265 258 252 247 243 240 237 234 231 229 227 226 225 225 224 224 223 223 224 225 227
329 328 326 325 323 322 322 321 320 319 318 317 315 313 310 307 304 300 295 289 283 276 269 262 254 248 243 240 237 233 232 231 227 225 224 223 223 222 222 221 222 223 225
329 328 327 325 325 324 324 323 323 322 321 319 317 315 312 310 307 304 299 293 287 280 273 266 259 251 244 240 237 233 230 230 229 226 224 222 222 221 220 219 220 221 222
330 329 327 326 326 326 326 325 325 324 324 322 321 319 317 315 312 309 304 299 293 286 279 271 263 255 246 240 237 233 230 228 228 228 225 222 221 220 219 218 218 218 219
331 329 328 328 328 328 328 328 328 328 327 326 325 324 322 318 315 311 307 301 296 290 284 277 268 259 250 242 237 233 230 228 226 226 227 224 221 220 219 218 217 217 218
331 330 330 330 330 330 330 330 330 330 329 328 327 326 323 319 315 311 306 302 296 291 286 280 273 263 253 246 239 234 230 228 226 224 224 226 223 220 218 217 216 216 217
Height
5874 5873 5872 5871 5870 5869 5868 5867 5866 5865 5864 5863 5863 5862 5861 5861 5861 5860 5860 5860 5859 5859 5859 5859 5859 5859 5859 5859 5859 5860 5860 5861 5861 5862 5862 5863 5863 5863 5864 5865 5866 5866 5867
5872 5870 5869 5868 5866 5865 5864 5862 5861 5860 5859 5857 5856 5855 5854 5854 5853 5853 5853 5853 5852 5852 5852 5852 5852 5852 5853 5853 5854 5854 5855 5856 5856 5857 5858 5859 5860 5860 5861 5861 5862 5863 5864
5869 5868 5867 5865 5864 5862 5860 5859 5857 5855 5854 5852 5850 5849 5848 5846 5845 5845 5844 5844 5844 5844 5844 5844 5845 5845 5845 5846 5847 5848 5849 5850 5851 5852 5853 5854 5855 5856 5857 5858 5859 5860 5861
5868 5867 5865 5863 5861 5859 5857 5855 5853 5851 5849 5847 5845 5843 5841 5839 5838 5836 5835 5834 5834 5834 5835 5835 5836 5836 5837 5838 5839 5840 5841 5843 5844 5845 5847 5849 5850 5852 5853 5854 5855 5856 5857
5866 5864 5862 5860 5858 5856 5853 5851 5848 5846 5844 5841 5839 5836 5834 5832 5830 5829 5827 5825 5825 5824 5824 5824 5825 5826 5827 5828 5829 5831 5832 5834 5836 5838 5840 5842 5844 5846 5847 5849 5850 5852 5853
5864 5862 5859 5857 5854 5851 5848 5846 5843 5840 5837 5834 5832 5829 5826 5824 5822 5820 5818 5816 5815 5814 5813 5813 5814 5815 5816 5817 5819 5820 5822 5824 5826 5829 5832 5834 5837 5839 5841 5843 5845 5847 5848
5861 5858 5855 5852 5849 5846 5842 5839 5836 5832 5829 5826 5823 5820 5817 5814 5812 5810 5807 5805 5804 5803 5802 5802 5802 5803 5804 5805 5807 5809 5811 5813 5816 5819 5822 5825 5829 5831 5834 5836 5838 5841 5843
5857 5854 5850 5846 5842 5838 5835 5830 5826 5823 5819 5815 5812 5808 5805 5802 5799 5797 5795 5793 5791 5790 5789 5790 5790 5790 5791 5792 5794 5796 5798 5801 5805 5808 5811 5815 5819 5822 5825 5828 5831 5834 5837
5852 5848 5844 5839 5835 5830 5825 5820 5815 5811 5806 5802 5798 5794 5791 5788 5784 5781 5779 5777 5776 5775 5775 5775 5776 5776 5777 5779 5780 5783 5785 5789 5793 5796 5800 5804 5809 5812 5816 5819 5822 5826 5829
5846 5841 5836 5831 5826 5820 5814 5808 5802 5797 5791 5786 5782 5778 5774 5770 5766 5763 5761 5759 5758 5758 5758 5759 5760 5760 5762 5764 5766 5768 5771 5775 5779 5783 5788 5792 5797 5802 5805 5809 5813 5817 5821
5838 5833 5828 5822 5816 5810 5803 5796 5790 5783 5776 5770 5765 5760 5755 5750 5746 5742 5739 5737 5736 5737 5738 5739 5741 5742 5745 5747 5750 5753 5756 5760 5765 5770 5774 5779 5784 5790 5794 5798 5802 5807 5811
5831 5825 5819 5813 5806 5799 5791 5784 5776 5769 5761 5753 5746 5740 5735 5729 5724 5719 5716 5713 5712 5713 5714 5716 5718 5721 5725 5728 5731 5735 5740 5745 5750 5755 5760 5765 5770 5776 5782 5786 5791 5796 5801
5823 5817 5809 5802 5794 5786 5778 5769 5760 5752 5743 5734 5725 5719 5712 5706 5700 5695 5690 5687 5686 5686 5688 5690 5693 5697 5702 5707 5711 5716 5722 5727 5732 5738 5745 5750 5756 5763 5769 5774 5779 5785 5790
5814 5807 5799 5790 5781 5771 5761 5752 5742 5732 5722 5712 5702 5694 5686 5678 5672 5667 5662 5659 5658 5658 5659 5662 5665 5671 5677 5682 5688 5695 5701 5707 5714 5721 5728 5735 5742 5749 5755 5761 5767 5773 5779
5804 5796 5787 5777 5766 5755 5744 5732 5721 5709 5697 5686 5675 5665 5656 5648 5641 5635 5630 5628 5627 5627 5629 5632 5636 5642 5649 5655 5663 5671 5678 5686 5694 5703 5711 5718 5726 5733 5741 5748 5754 5760 5767
5794 5784 5774 5762 5750 5737 5725 5712 5698 5685 5671 5658 5645 5634 5624 5617 5610 5604 5600 5597 5596 5596 5597 5600 5605 5612 5619 5627 5636 5645 5654 5664 5674 5683 5692 5700 5709 5717 5725 5733 5740 5747 5754
5782 5771 5759 5747 5733 5718 5704 5689 5673 5658 5644 5631 5618 5607 5597 5589 5582 5577 5573 5570 5568 5567 5568 5570 5574 5581 5589 5598 5608 5618 5629 5641 5651 5661 5671 5681 5690 5699 5708 5716 5724 5732 5740
5769 5757 5743 5729 5714 5698 5682 5665 5649 5633 5619 5606 5595 5584 5574 5566 5559 5553 5549 5546 5544 5543 5543 5545 5548 5553 5560 5569 5579 5590 5603 5616 5627 5638 5649 5659 5670 5680 5690 5699 5708 5716 5725
5755 5741 5726 5711 5696 5680 5662 5645 5628 5612 5598 5585 5574 5564 5554 5546 5538 5532 5527 5524 5522 5520 5520 5522 5525 5529 5535 5542 5552 5563 5575 5588 5601 5613 5626 5637 5649 5660 5671 5681 5691 5700 5709
5739 5725 5710 5695 5679 5663 5646 5629 5612 5596 5582 5568 5556 5545 5535 5526 5518 5512 5507 5503 5500 5499 5499 5500 5504 5508 5513 5520 5528 5538 5549 5560 5573 5588 5602 5615 5628 5640 5652 5663 5673 5683 5693
5724 5709 5694 5679 5663 5646 5630 5615 5600 5585 5570 5556 5541 5528 5517 5508 5500 5493 5488 5484 5481 5479 5479 5480 5482 5487 5493 5498 5507 5516 5526 5535 5547 5562 5576 5591 5606 5620 5632 5644 5656 5666 5676
5711 5696 5680 5663 5646 5629 5613 5597 5582 5568 5553 5539 5525 5512 5500 5491 5483 5477 5471 5467 5464 5462 5460 5460 5462 5467 5473 5478 5486 5496 5506 5514 5524 5538 5551 5566 5582 5598 5612 5625 5638 5650 5660
5699 5682 5665 5647 5630 5613 5597 5583 5569 5555 5539 5525 5513 5500 5488 5479 5471 5464 5458 5453 5449 5446 5444 5443 5444 5447 5453 5459 5466 5475 5484 5494 5504 5515 5527 5543 5558 5574 5590 5606 5620 5633 5643
5686 5668 5650 5632 5615 5599 5583 5568 5554 5539 5526 5512 5500 5489 5478 5468 5460 5453 5446 5441 5436 5432 5430 5428 5428 5429 5434 5440 5447 5455 5465 5474 5484 5495 5506 5520 5535 5552 5569 5586 5602 5615 5627
5673 5655 5637 5619 5602 5586 5570 5554 5540 5525 5511 5499 5488 5478 5468 5458 5449 5441 5435 5429 5424 5419 5416 5414 5413 5413 5416 5421 5428 5436 5446 5456 5466 5476 5487 5499 5514 5531 5548 5565 5582 5596 5610
5662 5644 5625 5608 5591 5575 5559 5543 5527 5514 5501 5489 5479 5469 5459 5449 5439 5430 5423 5416 5410 5406 5402 5399 5398 5397 5399 5403 5409 5417 5427 5438 5449 5460 5471 5480 5493 5509 5527 5544 5562 5577 5591